DAL667 KJFK-KSFO

Flight info

Callsign DAL667
Flight time N/A
Altitude 34000
Route GAYEL Q818 WOZEE Q935 HOCKE GRB GEP ABR J32 CZI/N0453F360 J32 LLC LEGGS BDEGA4
Aircraft B752/M-SDE2E3FGHIJ3J4J7RWXY/LB1

Departure

Time 2026-05-06 18:10
Airport John F. Kennedy International Airport (KJFK)

Arrival

Time N/A
Airport San Francisco International Airport (KSFO)
Time Latitude Longitude Altitude Speed Heading
2026-05-06 17:47 40.63734 -73.78178 24 ft 0 kts 83°
2026-05-06 17:58 40.63732 -73.78196 23 ft 2 kts 84°
2026-05-06 17:59 40.63731 -73.78215 23 ft 2 kts 83°
2026-05-06 17:59 40.63730 -73.78234 23 ft 1 kts 84°
2026-05-06 17:59 40.63728 -73.78254 23 ft 2 kts 102°
2026-05-06 17:59 40.63736 -73.78270 23 ft 2 kts 145°
2026-05-06 18:00 40.63749 -73.78276 23 ft 2 kts 179°
2026-05-06 18:00 40.63765 -73.78278 23 ft 2 kts 171°
2026-05-06 18:00 40.63771 -73.78278 23 ft 0 kts 171°
2026-05-06 18:03 40.63752 -73.78275 23 ft 6 kts 172°
2026-05-06 18:03 40.63685 -73.78265 23 ft 12 kts 174°
2026-05-06 18:04 40.63580 -73.78259 23 ft 15 kts 194°
2026-05-06 18:04 40.63497 -73.78313 23 ft 12 kts 209°
2026-05-06 18:04 40.63437 -73.78301 23 ft 8 kts 128°
2026-05-06 18:04 40.63398 -73.78218 23 ft 16 kts 120°
2026-05-06 18:05 40.63331 -73.78037 23 ft 25 kts 102°
2026-05-06 18:05 40.63372 -73.77830 23 ft 23 kts 50°
2026-05-06 18:05 40.63497 -73.77715 23 ft 21 kts 30°
2026-05-06 18:05 40.63631 -73.77609 23 ft 27 kts 31°
2026-05-06 18:06 40.63817 -73.77464 23 ft 31 kts 30°
2026-05-06 18:06 40.64002 -73.77320 23 ft 30 kts 30°
2026-05-06 18:06 40.64178 -73.77182 23 ft 28 kts 31°
2026-05-06 18:06 40.64342 -73.77055 23 ft 26 kts 31°
2026-05-06 18:07 40.64505 -73.76984 23 ft 23 kts 15°
2026-05-06 18:07 40.64647 -73.76887 23 ft 22 kts 30°
2026-05-06 18:07 40.64774 -73.76781 23 ft 23 kts 35°
2026-05-06 18:07 40.64935 -73.76649 23 ft 28 kts 31°
2026-05-06 18:08 40.65087 -73.76523 23 ft 18 kts 48°
2026-05-06 18:08 40.65093 -73.76437 23 ft 4 kts 120°
2026-05-06 18:08 40.65091 -73.76434 23 ft 0 kts 120°
2026-05-06 18:09 40.65091 -73.76433 23 ft 0 kts 120°
2026-05-06 18:09 40.65078 -73.76404 23 ft 9 kts 120°
2026-05-06 18:09 40.65025 -73.76357 23 ft 9 kts 195°
2026-05-06 18:09 40.64916 -73.76437 23 ft 41 kts 210°
2026-05-06 18:10 40.64471 -73.76785 24 ft 106 kts 211°
2026-05-06 18:10 40.63672 -73.77417 69 ft 158 kts 205°
2026-05-06 18:10 40.62632 -73.78234 527 ft 183 kts 210°
2026-05-06 18:10 40.61680 -73.79057 1777 ft 158 kts 209°
2026-05-06 18:11 40.60683 -73.79942 1789 ft 185 kts 210°
2026-05-06 18:11 40.59596 -73.80896 2141 ft 193 kts 210°
2026-05-06 18:11 40.58424 -73.81917 2430 ft 206 kts 210°
2026-05-06 18:11 40.57162 -73.82746 2994 ft 203 kts 188°
2026-05-06 18:12 40.55735 -73.82511 3373 ft 217 kts 156°
2026-05-06 18:12 40.54571 -73.81100 3661 ft 246 kts 124°
2026-05-06 18:12 40.54110 -73.78856 4101 ft 272 kts 95°
2026-05-06 18:12 40.54557 -73.76296 4286 ft 306 kts 65°
2026-05-06 18:13 40.55934 -73.74110 4917 ft 314 kts 39°
2026-05-06 18:13 40.57706 -73.72337 5540 ft 318 kts 37°
2026-05-06 18:13 40.59494 -73.70560 6143 ft 322 kts 37°
2026-05-06 18:13 40.61274 -73.68778 6759 ft 325 kts 37°
2026-05-06 18:14 40.63063 -73.66973 7377 ft 327 kts 37°
2026-05-06 18:14 40.64889 -73.65133 7972 ft 329 kts 37°
2026-05-06 18:14 40.66714 -73.63280 8557 ft 331 kts 37°
2026-05-06 18:14 40.68529 -73.61423 9224 ft 329 kts 37°
2026-05-06 18:15 40.70322 -73.59593 10169 ft 318 kts 37°
2026-05-06 18:15 40.72073 -73.57807 10695 ft 323 kts 37°
2026-05-06 18:15 40.73898 -73.55960 11128 ft 332 kts 37°
2026-05-06 18:15 40.75767 -73.54084 11417 ft 347 kts 37°
2026-05-06 18:16 40.77732 -73.52082 11425 ft 370 kts 37°
2026-05-06 18:16 40.79870 -73.49964 11441 ft 392 kts 30°
2026-05-06 18:16 40.82407 -73.48492 11492 ft 405 kts
2026-05-06 18:16 40.85197 -73.48229 11751 ft 402 kts 345°
2026-05-06 18:17 40.87896 -73.49048 12465 ft 392 kts 336°
2026-05-06 18:17 40.90516 -73.50040 13218 ft 390 kts 336°
2026-05-06 18:17 40.93137 -73.51060 13672 ft 395 kts 336°
2026-05-06 18:17 40.95790 -73.52093 14203 ft 397 kts 336°
2026-05-06 18:18 40.98412 -73.53115 14778 ft 397 kts 336°
2026-05-06 18:18 41.01078 -73.54176 15215 ft 397 kts 332°
2026-05-06 18:18 41.03531 -73.55720 15768 ft 385 kts 320°
2026-05-06 18:18 41.05617 -73.57914 16080 ft 380 kts 307°
2026-05-06 18:19 41.07287 -73.60606 16566 ft 372 kts 297°
2026-05-06 18:19 41.08485 -73.63631 16953 ft 369 kts 286°